Weather History for KFDK - March, 2014

Change the Weather History Date:

Monday, March 3, 2014

  Actual Average (KHGR) Record (KHGR)
Temperature  
Mean Temperature 16 °F 37 °F  
Max Temperature 32 °F 46 °F 68 °F (2008)
Min Temperature 1 °F 29 °F 10 °F (2003)
Degree Days  
Heating Degree Days 48 28  
Month to date heating degree days 84  
Since 1 July heating degree days 3987  
Cooling Degree Days 0 0  
Month to date cooling degree days 0  
Year to date cooling degree days 0  
Moisture  
Dew Point 16 °F    
Average Humidity 89    
Maximum Humidity 100    
Minimum Humidity 54    
Precipitation  
Precipitation 0.06 in 0.08 in 0.78 in (1999)
Month to date precipitation 0.24  
Year to date precipitation 5.47  
Sea Level Pressure  
Sea Level Pressure 30.24 in    
Wind  
Wind Speed 2 mph (North)    
Max Wind Speed 12 mph    
Max Gust Speed 14 mph    
Visibility 5 miles    
Events Rain , Snow    
T = Trace of Precipitation, MM = Missing Value Source: NWS Daily Summary

Daily Weather History Graph

Daily Weather History Graph

Search for Another Location

Airport or City:

Trip Planner

Search our weather history database for the weather conditions in past years. The results will help you decide how hot, cold, wet, or windy it might be!

Date:

Astronomy

Mar. 03, 2014 Rise Set
Actual Time 6:39 AM EST 6:03 PM EST
Civil Twilight 6:12 AM EST 6:30 PM EST
Nautical Twilight 5:41 AM EST 7:01 PM EST
Astronomical Twilight 5:10 AM EST 7:33 PM EST
Moon 7:47 AM EST (3/3) 9:03 PM EST (3/3)
Length of Visible Light 12h 18m
Length of Day
11h 24m
Waxing Crescent, 8% of the Moon is Illuminated
Mar 3
Waxing Crescent
Mar 8
First Quarter
Mar 16
Full
Mar 23
Last Quarter
Mar 30
New

Hourly Weather History & Observations

Time (EST) Temp. Windchill Dew Point Humidity Pressure Visibility Wind Dir Wind Speed Gust Speed Precip Events Conditions
12:05 AM 32.0 °F 28.7 °F 32.0 °F 100% 30.05 in 2.5 mi NNE 3.5 mph - N/A Rain Rain
12:25 AM 32.0 °F 26.4 °F 32.0 °F 100% 30.05 in 2.0 mi North 5.8 mph - 0.02 in Snow Light Snow
12:45 AM 32.0 °F 26.4 °F 32.0 °F 100% 30.06 in 1.2 mi North 5.8 mph - 0.03 in Snow Light Snow
1:05 AM 32.0 °F - 32.0 °F 100% 30.06 in 1.2 mi Calm Calm - 0.01 in Snow Light Snow
1:25 AM 32.0 °F - 32.0 °F 100% 30.06 in 1.0 mi Calm Calm - 0.01 in Snow Snow
1:45 AM 32.0 °F - 32.0 °F 100% 30.07 in 2.0 mi Calm Calm - 0.02 in Snow Light Snow
2:05 AM 32.0 °F - 32.0 °F 100% 30.07 in 2.5 mi Calm Calm - N/A Snow Light Snow
2:25 AM 32.0 °F - 32.0 °F 100% 30.08 in 2.5 mi Calm Calm - 0.01 in Snow Light Snow
2:45 AM 30.2 °F - 30.2 °F 100% 30.08 in 1.5 mi Calm Calm - 0.01 in Snow Light Snow
3:05 AM 30.2 °F - 30.2 °F 100% 30.08 in 2.5 mi Calm Calm - N/A Snow Light Snow
3:30 AM 28.4 °F - 28.4 °F 100% 30.08 in 2.0 mi Calm Calm - N/A Snow Light Snow
3:50 AM 28.4 °F - 28.4 °F 100% 30.09 in 2.5 mi Calm Calm - 0.01 in Snow Light Snow
4:10 AM 28.4 °F - 28.4 °F 100% 30.10 in 3.0 mi Calm Calm - N/A Snow Light Snow
4:30 AM 28.4 °F - 28.4 °F 100% 30.12 in 3.0 mi Calm Calm - 0.01 in Snow Light Snow
4:50 AM 26.6 °F - 26.6 °F 100% 30.12 in 2.5 mi Calm Calm - 0.01 in Snow Light Snow
5:10 AM 26.6 °F - 26.6 °F 100% 30.13 in 1.8 mi Calm Calm - 0.01 in Snow Light Snow
5:30 AM 24.8 °F - 24.8 °F 100% 30.15 in 3.0 mi Calm Calm - 0.01 in Snow Light Snow
5:35 AM 24.8 °F - 24.8 °F 100% 30.15 in 2.0 mi Calm Calm - 0.01 in Snow Light Snow
6:50 AM 19.4 °F - 19.4 °F 100% 30.20 in 1.0 mi North - - N/A Snow Snow
7:52 AM 17.6 °F - 17.6 °F 100% 30.24 in 0.5 mi North - - N/A Snow Snow
8:52 AM 17.6 °F 9.3 °F 17.6 °F 100% 30.26 in 0.8 mi North 5.8 mph 13.8 mph N/A Snow Light Snow
9:25 AM 17.6 °F 7.3 °F 14.0 °F 86% 30.27 in 3.0 mi NNE 8.1 mph - N/A Snow Light Snow
9:52 AM 17.6 °F 6.4 °F 10.4 °F 73% 30.26 in 10.0 mi North 9.2 mph - N/A   Overcast
10:48 AM 19.4 °F 11.5 °F 6.8 °F 58% 30.28 in 10.0 mi North 5.8 mph - N/A   Overcast
11:55 AM 19.4 °F 11.5 °F 6.8 °F 58% 30.28 in 10.0 mi North 5.8 mph - N/A   Overcast
12:50 PM 19.4 °F 10.4 °F 6.8 °F 58% 30.27 in 10.0 mi NNE 6.9 mph - N/A   Overcast
1:50 PM 21.2 °F 10.9 °F 6.8 °F 54% 30.27 in 10.0 mi NNE 9.2 mph - N/A   Overcast
2:55 PM 21.2 °F 9.5 °F 6.8 °F 54% 30.38 in 10.0 mi North 11.5 mph - N/A   Overcast
3:55 PM 21.2 °F 13.6 °F 6.8 °F 54% 30.31 in 10.0 mi NNW 5.8 mph - N/A   Clear
4:55 PM 21.2 °F 14.9 °F 6.8 °F 54% 30.31 in 10.0 mi Variable 4.6 mph - N/A   Clear
5:59 PM 17.6 °F - 6.8 °F 63% 30.35 in 10.0 mi Calm Calm - N/A   Clear
6:55 PM 14.0 °F - 5.0 °F 67% 30.36 in 10.0 mi Calm Calm - N/A   Clear
7:50 PM 8.6 °F - 3.2 °F 79% 30.37 in 10.0 mi Calm Calm - N/A   Clear
7:55 PM 6.8 °F - 5.0 °F 92% 30.37 in 10.0 mi Calm Calm - N/A   Clear
8:10 PM 8.6 °F - 8.6 °F 100% 30.37 in 10.0 mi Calm Calm - N/A   Clear
8:30 PM 6.8 °F - 6.8 °F 100% 30.37 in 10.0 mi Calm Calm - N/A   Clear
8:50 PM 8.6 °F - 8.6 °F 100% 30.38 in 10.0 mi Calm Calm - N/A   Clear
9:10 PM 5.0 °F - 5.0 °F 100% 30.38 in 7.0 mi Calm Calm - N/A   Clear
9:30 PM 3.2 °F - 1.4 °F 92% 30.39 in 5.0 mi Calm Calm - N/A   Clear
9:50 PM 6.8 °F - 6.8 °F 100% 30.40 in 7.0 mi Calm Calm - N/A   Clear
10:10 PM 1.4 °F - 1.4 °F 100% 30.39 in 7.0 mi Calm Calm - N/A   Clear
10:30 PM 3.2 °F - 1.4 °F 92% 30.39 in 5.0 mi Calm Calm - N/A   Clear
10:50 PM 5.0 °F - 3.2 °F 92% 30.39 in 1.8 mi Calm Calm - N/A   Mist
11:10 PM 3.2 °F - 1.4 °F 92% 30.38 in 0.8 mi Calm Calm - N/A   Mist
11:30 PM 3.2 °F - 1.4 °F 92% 30.39 in 4.0 mi Calm Calm - N/A   Clear
11:50 PM 1.4 °F - -0.4 °F 92% 30.39 in 7.0 mi Calm Calm - N/A   Clear